Fort Eustis, VA

10:04 PM EST on December 07, 2019 (GMT -0500)
Felker Army Air Field

Weather History for KFAF - November, 2019

Change the Weather History Date:

Tuesday, November 12, 2019

  Actual Average Record
Temperature  
Mean Temperature 45 °F -  
Max Temperature 57 °F 59 °F 75 °F (2003)
Min Temperature 32 °F 41 °F 30 °F (1996)
Degree Days  
Heating Degree Days 20    
Moisture  
Dew Point 36 °F    
Average Humidity 74    
Maximum Humidity 87    
Minimum Humidity 52    
Precipitation  
Precipitation 0.74 in - - ()
Sea Level Pressure  
Sea Level Pressure 29.98 in    
Wind  
Wind Speed 8 mph ()    
Max Wind Speed 21 mph    
Max Gust Speed 31 mph    
Visibility 8.7 miles    
Events Rain , Snow    
Averages and records for this station are not official NWS values.
T = Trace of Precipitation, MM = Missing Value Source: Averaged Metar Reports

Daily Weather History Graph

Daily Weather History Graph

Search for Another Location

Airport or City:

Astronomy

Nov. 12, 2019 Rise Set
Actual Time 6:41 AM EST 4:58 PM EST
Civil Twilight 6:14 AM EST 5:26 PM EST
Nautical Twilight 5:43 AM EST 5:57 PM EST
Astronomical Twilight 5:12 AM EST 6:28 PM EST
Moon 5:24 PM EST (11/12) 6:32 AM EST (11/12)
Length of Visible Light 11h 12m
Length of Day
10h 16m
Full, 100% of the Moon is Illuminated
Nov 12
Full
Nov 19
Last Quarter
Nov 26
New
Dec 4
First Quarter
Dec 12
Full

Hourly Weather History & Observations

Time (EST) Temp. Windchill Dew Point Humidity Pressure Visibility Wind Dir Wind Speed Gust Speed Precip Events Conditions
12:56 AM 56.7 °F - 39.2 °F 52% 29.90 in 10.0 mi SW 5.8 mph - N/A   Scattered Clouds
1:56 AM 55.4 °F - 39.9 °F 56% 29.90 in 10.0 mi SSW 5.8 mph - N/A   Mostly Cloudy
2:56 AM 55.9 °F - 39.6 °F 54% 29.88 in 10.0 mi SSW 5.8 mph - N/A   Overcast
3:56 AM 56.7 °F - 40.3 °F 54% 29.85 in 10.0 mi SW 6.9 mph - N/A   Overcast
4:56 AM 57.6 °F - 40.1 °F 52% 29.85 in 10.0 mi SW 6.9 mph - N/A   Mostly Cloudy
5:56 AM 57.0 °F - 41.5 °F 56% 29.85 in 10.0 mi SW 6.9 mph - N/A   Overcast
6:34 AM 57.2 °F - 42.8 °F 59% 29.85 in 10.0 mi SW 6.9 mph - N/A Rain Light Rain
6:56 AM 55.4 °F - 43.3 °F 64% 29.84 in 10.0 mi SSW 3.5 mph - 0.00 in   Overcast
6:57 AM 55.4 °F - 42.8 °F 63% 29.84 in 10.0 mi Calm Calm - N/A Rain Light Rain
7:02 AM 55.4 °F - 44.6 °F 67% 29.85 in 10.0 mi SW 3.5 mph - N/A   Overcast
7:56 AM 54.5 °F - 44.6 °F 69% 29.86 in 10.0 mi SSW 4.6 mph - 0.00 in   Overcast
8:08 AM 55.4 °F - 44.6 °F 67% 29.86 in 10.0 mi SW 3.5 mph - N/A Rain Light Rain
8:56 AM 53.4 °F - 46.4 °F 77% 29.88 in 10.0 mi West 5.8 mph - 0.01 in Rain Light Rain
9:03 AM 53.6 °F - 46.4 °F 77% 29.88 in 10.0 mi West 4.6 mph - N/A Rain Light Rain
9:56 AM 52.2 °F - 47.5 °F 84% 29.90 in 6.0 mi WNW 8.1 mph - 0.07 in Rain Rain
10:56 AM 51.3 °F - 46.9 °F 85% 29.91 in 6.0 mi North 18.4 mph 31.1 mph 0.13 in Rain Rain
11:06 AM 46.4 °F 38.7 °F 41.0 °F 81% 29.93 in 9.0 mi North 20.7 mph 29.9 mph N/A Rain Rain
11:55 AM 42.8 °F 37.0 °F 39.2 °F 87% 29.93 in 10.0 mi North 10.4 mph 24.2 mph 0.13 in Rain Light Rain
11:56 AM 42.4 °F 36.5 °F 38.3 °F 85% 29.94 in 10.0 mi North 10.4 mph 24.2 mph 0.13 in Rain Light Rain
12:50 PM 41.0 °F 32.8 °F 37.4 °F 87% 29.97 in 9.0 mi NNW 16.1 mph 26.5 mph N/A Rain Rain
12:56 PM 40.5 °F 32.8 °F 36.3 °F 85% 29.98 in 9.0 mi NNW 13.8 mph 26.5 mph 0.13 in Rain Rain
1:56 PM 37.8 °F 29.8 °F 33.6 °F 85% 29.99 in 7.0 mi North 12.7 mph 23.0 mph 0.09 in Rain Rain
2:16 PM 37.4 °F 28.2 °F 32.0 °F 81% 30.00 in 9.0 mi North 16.1 mph 21.9 mph N/A Rain Light Rain
2:26 PM 37.4 °F 28.9 °F 32.0 °F 81% 30.00 in 8.0 mi North 13.8 mph 21.9 mph N/A Rain , Snow Light Rain
2:36 PM 35.6 °F 29.2 °F 32.0 °F 87% 30.00 in 3.0 mi North 8.1 mph 21.9 mph N/A Rain , Snow Rain
2:40 PM 35.6 °F 26.6 °F 32.0 °F 87% 30.00 in 3.0 mi North 13.8 mph 18.4 mph N/A Snow Light Snow
2:46 PM 35.6 °F 26.6 °F 32.0 °F 87% 30.00 in 2.0 mi North 13.8 mph 20.7 mph N/A Snow Light Snow
2:56 PM 35.1 °F 27.9 °F 30.9 °F 85% 30.01 in 2.0 mi North 9.2 mph 18.4 mph 0.14 in Snow Light Snow
3:06 PM 35.6 °F 27.5 °F 32.0 °F 87% 30.00 in 3.0 mi North 11.5 mph 18.4 mph N/A Snow Light Snow
3:36 PM 35.6 °F 27.1 °F 32.0 °F 87% 30.03 in 10.0 mi North 12.7 mph 20.7 mph N/A Rain , Snow Light Rain
3:46 PM 35.6 °F 27.1 °F 32.0 °F 87% 30.03 in 10.0 mi North 12.7 mph 19.6 mph N/A Snow Light Snow
3:56 PM 34.7 °F 28.1 °F 30.9 °F 86% 30.03 in 9.0 mi North 8.1 mph - 0.04 in Snow Light Snow
4:35 PM 33.8 °F 28.6 °F 30.2 °F 87% 30.04 in 10.0 mi NNE 5.8 mph - N/A Rain Light Rain
4:46 PM 35.6 °F 31.7 °F 30.2 °F 81% 30.05 in 10.0 mi NNE 4.6 mph - N/A   Mostly Cloudy
4:56 PM 34.7 °F 30.6 °F 30.9 °F 86% 30.05 in 10.0 mi NE 4.6 mph - 0.00 in   Mostly Cloudy
5:56 PM 35.4 °F 32.6 °F 31.6 °F 86% 30.07 in 10.0 mi NNE 3.5 mph - N/A   Overcast
6:56 PM 36.1 °F 29.9 °F 31.8 °F 84% 30.10 in 10.0 mi North 8.1 mph - N/A   Mostly Cloudy
7:56 PM 36.9 °F 28.2 °F 28.0 °F 70% 30.13 in 10.0 mi NNW 13.8 mph 24.2 mph N/A   Clear
8:56 PM 35.6 °F 26.6 °F 21.9 °F 58% 30.16 in 10.0 mi North 13.8 mph 27.6 mph N/A   Partly Cloudy
9:56 PM 34.7 °F 25.5 °F 21.0 °F 57% 30.18 in 10.0 mi NNW 13.8 mph 23.0 mph N/A   Clear
10:56 PM 33.4 °F 24.3 °F 20.3 °F 59% 30.20 in 10.0 mi NNW 12.7 mph 26.5 mph N/A   Clear
11:56 PM 32.7 °F 23.0 °F 20.3 °F 60% 30.23 in 10.0 mi NNW 13.8 mph 23.0 mph N/A   Clear